Location: Ottawa
(45.4167°N, 75.7000°W)
Time: 22:53:26
(UTC-04:00)

OTV 5 (USA 277) - Pass Details

Date: 16 October 2017
Orbit: 404 x 417 km, 43.0° (Epoch: 07 September)

Event Time Altitude Azimuth Distance (km) Brightness Sun altitude
Rises 19:28:08 0° 264° (W) 2,354 ? -13.6°
Reaches altitude 10° 19:30:16 10° 261° (W) 1,491 ? -13.9°
Maximum altitude 19:33:35 57° 182° (S) 495 ? -14.5°
Enters shadow 19:35:01 30° 115° (ESE) 782 ? -14.8°
